Regional Weather Roundup
Issued by NWS

Home | Current Version | Previous Version | Text Only | Print | Product List | Glossary On
Versions: 1 2 3 4 5 6 7 8 9 10 11 12 13 14 15 16 17 18 19 20 21 22 23 24 25 26 27 28
000
ASUS44 KLIX 170813
RWRLA
LOUISIANA WEATHER ROUNDUP
NATIONAL WEATHER SERVICE NEW ORLEANS LA
200 AM CST TUE JAN 17 2017

NOTE: "FAIR" INDICATES FEW OR NO CLOUDS BELOW 12,000 FEET WITH NO
      SIGNIFICANT WEATHER AND/OR OBSTRUCTIONS TO VISIBILITY.
      SKY/WX - SKY CONDITION AND SIGNIFICANT WEATHER.
      TMP - AIR TEMPERATURE.    DP   - DEWPOINT TEMPERATURE.
      RH  - RELATIVE HUMIDITY.  PRES - PRESSURE.
      HX  - HEAT INDEX.         WCI  - WIND CHILL INDEX.

*  THESE STATIONS ARE NOT NWS OR FAA STATIONS AND ARE NOT UNDER
   NWS QUALITY CONTROL.

LAZ040-048-061>063-065-066-069-170900-
SOUTHEAST LOUISIANA

CITY           SKY/WX    TMP DP  RH WIND       PRES   REMARKS
N.O. AUDUBON   NOT AVBL
N.O. INTL ARPT CLOUDY    66  65  96 SE6       30.11F
N.O. LAKEFRONT MOCLDY    66  66 100 S7        30.12S
N.O. DOWNTOWN*   N/A     68  66  93 VRB3      30.12F
RESERVE*       PTSUNNY   66  65  94 SE3       30.11S FOG
SLIDELL        CLOUDY    66  65  96 S7        30.12S
BATON ROUGE    CLOUDY    70  67  90 S8        30.10S
BOOTHVILLE     CLOUDY    66  66 100 SE7       30.13S FOG
BELLE CHASSE   CLOUDY    67  66  97 SE6       30.11F
BOGALUSA*      CLOUDY    69  65  87 S5        30.15S
GALLIANO*      CLOUDY    68  65  90 CALM      30.11F
NEW ROADS*     CLOUDY    66  66 100 SE3       30.10S
GONZALES*      PTSUNNY   68  67  99 SE3       30.09S
HAMMOND*       CLOUDY    64  63  94 SE5       30.12S FOG
HOUMA*         MOCLDY    67  67  99 SE7       30.10F FOG
PORT FOURCHON* CLOUDY    70  66  88 SE8       30.10F

$$

LAZ041-044-053-054-170900-
SOUTHWEST LOUISIANA

CITY           SKY/WX    TMP DP  RH WIND       PRES   REMARKS
LAKE CHARLES   CLOUDY    71  69  93 S9        30.04F
LAFAYETTE      CLOUDY    71  69  93 S10       30.08R FOG
PATTERSON      CLOUDY    67  67 100 SE5       30.11R
SALT POINT     NOT AVBL
NEW IBERIA     CLOUDY    70  66  87 S12       30.09R
CHENAULT AIRPK CLOUDY    70  69  97 S8        30.05F

$$

LAZ027-028-170900-
CENTRAL LOUISIANA

CITY           SKY/WX    TMP DP  RH WIND       PRES   REMARKS
FORT POLK      CLOUDY    69  68  97 S10       30.03S
ALEXANDRIA INT CLOUDY    68  67  96 SE10      30.03S
ALEXANDRIA     CLOUDY    68  67  96 S5        30.05F

$$

LAZ001-002-170900-
NORTHWEST LOUISIANA

CITY           SKY/WX    TMP DP  RH WIND       PRES   REMARKS
SHREVEPORT     CLOUDY    58  56  93 N3        30.07S
BARKSDALE AFB  CLOUDY    57  57 100 N5        30.07F
DTN SHREVEPORT CLOUDY    58  54  86 VRB5      30.07F

$$

LAZ014-016-170900-
NORTHEAST LOUISIANA

CITY           SKY/WX    TMP DP  RH WIND       PRES   REMARKS
MONROE         CLOUDY    68  64  87 S7        30.05S
TALLULAH       MOCLDY    64  63  96 S7        30.07F

$$





USA.gov is the U.S. government's official web portal to all federal, state and local government web resources and services.